When you browse on this site, cookies collect data to enhance your experience and personalize the content and advertising you see.
Visit our Privacy Policy to learn more. By continuing to use the site, you agree to this use of cookies and data.
  • In Hungary
  • List of Countries
  • For 7 days
  • Water Temperature
  • Satellite Maps
  • Weather Map
  • News
  • Weather Widgets
  • user-avatar
    Login

    Hourly Weather Kinshasa

    Today, 22 April, Monday

    Time Temperature Precipitation Wind Pressure Humidity
    00:00 +25°C° 0.2 mm 1 mps 706 mmHg 88%
    01:00 +25°C° 0 mm 1 mps 706 mmHg 89%
    02:00 +24°C° 0 mm 1 mps 706 mmHg 90%
    03:00 +24°C° 0 mm 1 mps 706 mmHg 91%
    04:00 +24°C° 0 mm 1 mps 706 mmHg 92%
    05:00 +24°C° 0 mm 2 mps 706 mmHg 91%
    06:00 +25°C° 0 mm 2 mps 706 mmHg 89%
    07:00 +25°C° 0 mm 2 mps 707 mmHg 88%
    08:00 +27°C° 0 mm 2 mps 707 mmHg 77%
    09:00 +30°C° 0 mm 2 mps 707 mmHg 67%
    10:00 +32°C° 0 mm 2 mps 708 mmHg 56%
    11:00 +35°C° 0 mm 2 mps 707 mmHg 50%
    12:00 +36°C° 0 mm 1 mps 707 mmHg 43%
    13:00 +39°C° 0 mm 1 mps 707 mmHg 37%
    14:00 +37°C° 0 mm 1 mps 706 mmHg 37%
    15:00 +37°C° 0 mm 1 mps 705 mmHg 37%
    16:00 +36°C° 0 mm 1 mps 705 mmHg 37%
    17:00 +34°C° 0 mm 1 mps 705 mmHg 45%
    18:00 +31°C° 0 mm 1 mps 705 mmHg 52%
    19:00 +27°C° 0 mm 0 mps 705 mmHg 60%
    20:00 +28°C° 0.4 mm 1 mps 705 mmHg 68%
    21:00 +27°C° 0.4 mm 1 mps 706 mmHg 76%
    22:00 +26°C° 0.4 mm 2 mps 706 mmHg 83%
    23:00 +25°C° 0.1 mm 1 mps 706 mmHg 86%

    Tomorrow, 23 April, Tuesday

    Time Temperature Precipitation Wind Pressure Humidity
    00:00 +25°C° 0.1 mm 1 mps 705 mmHg 90%
    01:00 +24°C° 0.1 mm 1 mps 705 mmHg 93%
    02:00 +24°C° 0 mm 1 mps 705 mmHg 93%
    03:00 +24°C° 0 mm 1 mps 705 mmHg 93%
    04:00 +24°C° 0 mm 1 mps 704 mmHg 94%
    05:00 +24°C° 0 mm 1 mps 705 mmHg 92%
    06:00 +25°C° 0 mm 1 mps 705 mmHg 90%
    07:00 +25°C° 0 mm 1 mps 706 mmHg 88%
    08:00 +28°C° 0 mm 1 mps 706 mmHg 76%
    09:00 +31°C° 0 mm 1 mps 707 mmHg 63%
    10:00 +33°C° 0 mm 1 mps 708 mmHg 51%
    11:00 +35°C° 0 mm 1 mps 707 mmHg 45%
    12:00 +37°C° 0 mm 1 mps 707 mmHg 39%
    13:00 +41°C° 0 mm 1 mps 707 mmHg 34%
    14:00 +39°C° 0 mm 1 mps 706 mmHg 35%
    15:00 +37°C° 0 mm 1 mps 705 mmHg 36%
    16:00 +36°C° 0 mm 1 mps 705 mmHg 38%
    17:00 +34°C° 0 mm 1 mps 705 mmHg 44%
    18:00 +32°C° 0 mm 1 mps 705 mmHg 51%
    19:00 +30°C° 0 mm 1 mps 705 mmHg 58%
    20:00 +29°C° 0 mm 1 mps 705 mmHg 62%
    21:00 +28°C° 0 mm 1 mps 706 mmHg 66%
    22:00 +27°C° 0 mm 1 mps 706 mmHg 70%
    23:00 +27°C° 0.6 mm 1 mps 706 mmHg 75%

    Day after tomorrow, 24 April, Wednesday

    Time Temperature Precipitation Wind Pressure Humidity
    00:00 +26°C° 0.6 mm 1 mps 706 mmHg 81%
    01:00 +25°C° 0.6 mm 1 mps 705 mmHg 87%
    02:00 +25°C° 0 mm 1 mps 705 mmHg 89%
    03:00 +24°C° 0 mm 1 mps 705 mmHg 91%
    04:00 +24°C° 0 mm 1 mps 705 mmHg 92%
    05:00 +25°C° 0 mm 1 mps 705 mmHg 90%
    06:00 +25°C° 0 mm 1 mps 706 mmHg 88%
    07:00 +26°C° 0 mm 2 mps 707 mmHg 85%
    08:00 +28°C° 0 mm 2 mps 708 mmHg 74%
    09:00 +31°C° 0 mm 2 mps 708 mmHg 63%
    10:00 +35°C° 0 mm 2 mps 709 mmHg 52%
    11:00 +35°C° 0 mm 2 mps 708 mmHg 50%
    12:00 +35°C° 0 mm 2 mps 707 mmHg 49%
    13:00 +35°C° 0 mm 1 mps 707 mmHg 47%
    14:00 +35°C° 0 mm 1 mps 706 mmHg 48%
    15:00 +35°C° 0 mm 1 mps 706 mmHg 48%
    16:00 +34°C° 0 mm 1 mps 705 mmHg 49%
    17:00 +33°C° 0 mm 1 mps 706 mmHg 55%
    18:00 +31°C° 0 mm 1 mps 706 mmHg 61%
    19:00 +29°C° 0 mm 2 mps 706 mmHg 67%
    20:00 +28°C° 5.7 mm 1 mps 706 mmHg 76%
    21:00 +27°C° 5.7 mm 1 mps 707 mmHg 85%
    22:00 +26°C° 5.7 mm 1 mps 707 mmHg 94%
    23:00 +26°C° 0.7 mm 1 mps 707 mmHg 94%

    25 April, Thursday

    Time Temperature Precipitation Wind Pressure Humidity
    00:00 +25°C° 0.7 mm 1 mps 707 mmHg 93%
    01:00 +25°C° 0.7 mm 2 mps 707 mmHg 93%
    02:00 +25°C° 0.1 mm 2 mps 707 mmHg 93%
    03:00 +25°C° 0.1 mm 2 mps 707 mmHg 93%
    04:00 +24°C° 0.1 mm 2 mps 707 mmHg 94%
    05:00 +25°C° 0 mm 2 mps 707 mmHg 93%
    06:00 +25°C° 0 mm 2 mps 707 mmHg 91%
    07:00 +25°C° 0 mm 2 mps 708 mmHg 90%
    08:00 +28°C° 0 mm 2 mps 708 mmHg 77%
    09:00 +31°C° 0 mm 2 mps 709 mmHg 64%
    10:00 +35°C° 0 mm 2 mps 709 mmHg 51%
    11:00 +36°C° 0 mm 2 mps 708 mmHg 47%
    12:00 +37°C° 0 mm 1 mps 708 mmHg 42%
    13:00 +39°C° 0 mm 1 mps 707 mmHg 37%
    14:00 +39°C° 0 mm 1 mps 706 mmHg 38%
    15:00 +35°C° 0 mm 0 mps 706 mmHg 39%
    16:00 +35°C° 0 mm 0 mps 705 mmHg 40%
    17:00 +33°C° 0 mm 0 mps 705 mmHg 46%
    18:00 +30°C° 0 mm 0 mps 706 mmHg 52%
    19:00 +28°C° 0 mm 0 mps 706 mmHg 58%
    20:00 +29°C° 0 mm 1 mps 706 mmHg 60%
    21:00 +29°C° 0 mm 1 mps 706 mmHg 63%
    22:00 +28°C° 0 mm 1 mps 706 mmHg 65%
    23:00 +28°C° 0 mm 1 mps 706 mmHg 67%

    26 April, Friday

    Time Temperature Precipitation Wind Pressure Humidity
    00:00 +27°C° 0 mm 1 mps 705 mmHg 69%
    01:00 +27°C° 0 mm 1 mps 705 mmHg 70%
    02:00 +26°C° 0.6 mm 1 mps 705 mmHg 77%
    03:00 +25°C° 0.6 mm 1 mps 705 mmHg 83%
    04:00 +24°C° 0.6 mm 1 mps 705 mmHg 90%
    05:00 +24°C° 0.6 mm 1 mps 706 mmHg 91%
    06:00 +24°C° 0.6 mm 1 mps 707 mmHg 92%
    07:00 +24°C° 0.6 mm 1 mps 707 mmHg 94%
    08:00 +26°C° 0 mm 1 mps 708 mmHg 86%
    09:00 +28°C° 0 mm 2 mps 708 mmHg 78%
    10:00 +30°C° 0 mm 2 mps 709 mmHg 71%
    11:00 +31°C° 0 mm 2 mps 708 mmHg 65%
    12:00 +34°C° 0 mm 2 mps 707 mmHg 58%
    13:00 +35°C° 0 mm 3 mps 706 mmHg 52%
    14:00 +35°C° 0 mm 2 mps 705 mmHg 51%
    15:00 +35°C° 0 mm 2 mps 705 mmHg 51%
    16:00 +35°C° 0 mm 2 mps 704 mmHg 50%
    17:00 +32°C° 0 mm 2 mps 705 mmHg 57%
    18:00 +31°C° 0 mm 2 mps 705 mmHg 64%
    19:00 +29°C° 0 mm 1 mps 705 mmHg 71%
    20:00 +28°C° 0 mm 1 mps 705 mmHg 73%
    21:00 +27°C° 0 mm 1 mps 705 mmHg 75%
    22:00 +27°C° 0 mm 1 mps 706 mmHg 76%
    23:00 +26°C° 0 mm 1 mps 705 mmHg 79%

    27 April, Saturday

    Time Temperature Precipitation Wind Pressure Humidity
    00:00 +26°C° 0 mm 1 mps 705 mmHg 81%
    01:00 +25°C° 0 mm 1 mps 705 mmHg 84%
    02:00 +25°C° 0 mm 1 mps 705 mmHg 86%
    03:00 +25°C° 0 mm 1 mps 705 mmHg 88%
    04:00 +24°C° 0 mm 1 mps 705 mmHg 90%
    05:00 +24°C° 0.3 mm 1 mps 706 mmHg 91%
    06:00 +25°C° 0.3 mm 1 mps 707 mmHg 91%
    07:00 +25°C° 0.3 mm 1 mps 707 mmHg 92%
    08:00 +26°C° 0 mm 1 mps 708 mmHg 85%
    09:00 +28°C° 0 mm 2 mps 708 mmHg 79%
    10:00 +29°C° 0 mm 2 mps 708 mmHg 72%
    11:00 +31°C° 0 mm 2 mps 708 mmHg 64%
    12:00 +34°C° 0 mm 2 mps 707 mmHg 56%
    13:00 +36°C° 0 mm 2 mps 707 mmHg 47%
    14:00 +36°C° 0 mm 2 mps 706 mmHg 47%
    15:00 +36°C° 0 mm 2 mps 706 mmHg 46%
    16:00 +36°C° 0 mm 2 mps 705 mmHg 45%
    17:00 +33°C° 0 mm 1 mps 706 mmHg 51%
    18:00 +32°C° 0 mm 1 mps 706 mmHg 57%
    19:00 +30°C° 0 mm 1 mps 706 mmHg 63%
    20:00 +29°C° 0 mm 1 mps 706 mmHg 67%
    21:00 +28°C° 0 mm 1 mps 706 mmHg 71%
    22:00 +27°C° 0 mm 1 mps 706 mmHg 74%
    23:00 +27°C° 0 mm 1 mps 706 mmHg 78%
    Show more